Regional Weather Roundup
Issued by NWS

Home | Current Version | Previous Version | Text Only | Print | Product List | Glossary Off
Versions: 1 2 3 4 5 6 7 8 9 10 11 12 13 14 15 16 17 18 19 20 21 22 23 24 25 26 27 28 29 30 31 32 33 34 35 36 37 38 39 40 41 42 43 44 45 46 47 48 49 50

000
ASUS43 KIND 301709
RWRIN

WEATHER ROUNDUP FOR INDIANA
NATIONAL WEATHER SERVICE INDIANAPOLIS IN
100 PM EDT WED JUL 30 2014

NOTE: "FAIR" INDICATES FEW OR NO CLOUDS BELOW 12,000 FEET WITH NO
SIGNIFICANT WEATHER AND/OR OBSTRUCTIONS TO VISIBILITY.

* - STATION DOES NOT REPORT WEATHER SUCH AS PRECIPITATION OR FOG.

+ - STATION NOT QUALITY CONTROLLED BY THE NATIONAL WEATHER SERVICE.
    USE DATA WITH CAUTION...ESPECIALLY DEWPOINT AND RELATIVE
    HUMIDITY OBSERVATIONS.

INZ001>003-010>013-019-020-301800-
NORTHWEST INDIANA

CITY           SKY/WX    TMP DP  RH WIND       PRES   REMARKS
GARY /AIRPORT/ MOSUNNY   73  57  56 VRB7      30.05F
KNOX *+        CLOUDY    73  57  56 NW8       30.04F
LA PORTE +     FAIR      72  58  60 W6        30.06S
MICHIGAN CITY+ FAIR      70  55  60 W7        30.06S
MONTICELLO +   FAIR      73  60  65 W6        30.05S
RENSSELAER +   FAIR      73  61  64 W5        30.06S
VALPARAISO     FAIR      74  58  57 CALM      30.06S

$$

LMZ046-743>745-301800-
SOUTHERN LAKE MICHIGAN

STATION/POSITION TIME  TEMP WIND        PRES
                       AIR  DIR/SP/G
                 (UTC) (F)  (DEG/KT/KT) (MB)
MICHIGAN CITY    1700   66  250/  6/  7   N/A

$$

INZ004-005-014>016-021>024-301800-
NORTH CENTRAL INDIANA

CITY           SKY/WX    TMP DP  RH WIND       PRES   REMARKS
GOSHEN         PTSUNNY   73  58  59 SW15      30.04F
LOGANSPORT +   FAIR      72  61  68 W6        30.07S
PERU/GRISSOM   FAIR      73  64  74 W7        30.06F
ROCHESTER +    FAIR      77  57  50 W9G16     30.06S
SOUTH BEND     FAIR      73  56  54 W13G20    30.05S
WARSAW +       PTSUNNY   70  57  64 W8        30.06S

$$

INZ006>009-017-018-025>027-301800-
NORTHEAST INDIANA

CITY           SKY/WX    TMP DP  RH WIND       PRES   REMARKS
ANGOLA *+      MOSUNNY   75  59  57 W9        30.03S
AUBURN +       FAIR      70  55  60 NW6       30.05S
FORT WAYNE     PTSUNNY   72  58  61 W6        30.05F
HUNTINGTON +   CLOUDY    72  58  61 W6        30.05S

$$

INZ028-029-035-036-043>045-051>053-301800-
WEST CENTRAL INDIANA

CITY           SKY/WX    TMP DP  RH WIND       PRES   REMARKS
GREENCASTLE +  PTSUNNY   75  61  60 W8        30.08F
LAFAYETTE      FAIR      72  60  66 W5        30.06F
TERRE HAUTE    PTSUNNY   77  60  55 SW8G21    30.08S

$$

INZ030>032-037>040-046>048-054>057-064-065-301800-
CENTRAL INDIANA

CITY           SKY/WX    TMP DP  RH WIND       PRES   REMARKS
CP ATTERBURY + PTSUNNY   73  59  60 W6        30.08F
COLUMBUS       PTSUNNY   75  61  60 W6        30.07F
GREENWOOD *+   FAIR      77  66  69 W8        30.08
INDIANAPOLIS   PTSUNNY   76  61  59 W12       30.06F
-EAGLE CREEK   FAIR      76  59  55 W8        30.06F
KOKOMO *+      FAIR      72  61  68 W6        30.07S
MARION +       CLOUDY    70  58  66 NW6       30.08S
MT COMFORT *+  FAIR      75  63  64 NW12      30.07F
SHELBYVILLE    FAIR      77  63  61 W9        30.07S
ZIONSVILLE +   CLOUDY    74  58  58 W5        30.08S

$$

INZ033-034-041-042-049-050-058-059-301800-
EAST CENTRAL INDIANA

CITY           SKY/WX    TMP DP  RH WIND       PRES   REMARKS
MUNCIE         FAIR      73  58  59 NW8       30.07S

$$

INZ060-061-067>069-081>083-085>088-301800-
SOUTHWEST INDIANA

CITY           SKY/WX    TMP DP  RH WIND       PRES   REMARKS
EVANSVILLE     PTSUNNY   79  55  43 SW7       30.11S
WASHINGTON +   FAIR      75  61  62 W3        30.10S

$$

INZ062-063-066-070>080-084-089>092-301800-
SOUTH CENTRAL AND SOUTHEAST INDIANA

CITY           SKY/WX    TMP DP  RH WIND       PRES   REMARKS
BLOOMINGTON    FAIR      76  59  55 W8        30.09F

$$



USA.gov is the U.S. government's official web portal to all federal, state and local government web resources and services.